Location: Recife
(8.0585°S, 34.8848°W)
Time: 22:02:06
(UTC-03:00)

Vanguard 1 Rocket - Pass Details

Date: 20 April 2026
Orbit: 655 x 4212 km, 34.3° (Epoch: 12 May)

Event Time Altitude Azimuth Distance (km) Brightness Sun altitude
Rises 02:56:01 0° 326° (NW) 6,861 11.7 -36.4°
Reaches altitude 10° 03:02:53 10° 339° (NNW) 5,105 11.1 -34.7°
Maximum altitude 03:11:58 21° 22° (NNE) 3,177 10.4 -32.5°
Drops below altitude 10° 03:17:57 10° 69° (ENE) 3,227 11.1 -31.0°
Sets 03:21:00 0° 86° (E) 3,821 11.8 -30.3°
